Flag for Syria Weather past 2 weeks in Damascus, Syria

Now
45 °F

Clear.


Feels Like: 45 °F
Forecast: 39 / 62 °F
Wind: No wind

Location: Damascus Int. Airport

Current Time: Dec 18, 2014 at 1:26:59 AM

Latest Report: Dec 18, 2014 at 1:00 AM


Visibility: 10 mi

Pressure: 30.24 "Hg

Humidity: 87%

Dew point: 41 °F

Location of DamascusLocation

Historic Weather in Damascus — Graph

°F

Damascus temperature yesterday

Maximum temperature yesterday: 59 °F (at 3:00 PM)
Minimum temperature yesterday: 34 °F (at 4:00 AM)
Average temperature yesterday: 44 °F

Past Weeks' High & Low Weather Summary

 TemperatureHumidityPressure
High75 °F (Dec 16, 1:00 PM)100% (Dec 6, 5:00 AM)30.36 "Hg (Dec 6, 5:00 AM)
Low34 °F (Dec 16, 5:00 AM)29% (Dec 16, 1:00 PM)29.89 "Hg (Dec 3, 2:00 AM)
Average52 °F78%30.15 "Hg
* Reported Midnight between Dec 2 and Dec 3 — Midnight between Dec 17 and Dec 18, Damascus, Weather by CustomWeather, © 2014

Note: Actual official high and low records may vary slightly from our data, if they occured in-between our weather recording intervals... More about our weather records

Advertising

Damascus weather history for previous 24 hours

 ConditionsComfort  
Time TempWeatherWind HumidityBarometerVisibility
12:00 AM
Dec 18
46 °FClear.No wind87%30.24 "Hg10 mi
6:00 PM
Dec 17
50 °FClear.No wind71%30.27 "Hg10 mi
5:00 PM54 °FClear.No wind67%30.24 "Hg10 mi
4:00 PM57 °FSunny.No wind59%30.24 "Hg10 mi
3:00 PM59 °FSunny.No wind48%30.27 "Hg10 mi
2:00 PM57 °FSunny.5 mph55%30.27 "Hg10 mi
11:00 AM54 °FSunny.No wind67%30.33 "Hg10 mi
10:00 AM50 °FSunny.No wind76%30.36 "Hg10 mi
9:00 AM43 °FSunny.No wind87%30.36 "Hg10 mi
8:00 AM39 °FFog.No wind93%30.36 "Hg2 mi
7:00 AM36 °FFog.3 mph100%30.33 "Hg2 mi
6:00 AM34 °FFog.6 mph100%30.33 "Hg2 mi
5:00 AM34 °FFog.3 mph100%30.33 "Hg1 mi
4:00 AM34 °FFog.3 mph100%30.30 "Hg1 mi
3:00 AM36 °FFog.5 mph93%30.33 "Hg1 mi
2:00 AM37 °FFog.5 mph93%30.33 "Hg2 mi
1:00 AM37 °FFog.3 mph93%30.33 "Hg2 mi
Weather by CustomWeather, © 2014

See weather overviewHow to use our weather pages